When you browse on this site, cookies collect data to enhance your experience and personalize the content and advertising you see.
Visit our Privacy Policy to learn more. By continuing to use the site, you agree to this use of cookies and data.
  • In Portugal
  • List of Countries
  • For 7 days
  • Water Temperature
  • Satellite Maps
  • Weather Map
  • Weather Widgets
  • user-avatar
    Login

    Hourly Weather Burgas

    Today, 19 December, Wednesday

    Time Temperature Precipitation Wind Pressure Humidity
    00:00 -5°C° 0.2 mm 10 mps 765 mmHg 87%
    01:00 -5°C° 0.2 mm 10 mps 765 mmHg 86%
    02:00 -7°C° 0 mm 11 mps 765 mmHg 86%
    03:00 -5°C° 0.2 mm 10 mps 765 mmHg 85%
    04:00 -5°C° 0.2 mm 10 mps 765 mmHg 85%
    05:00 -5°C° 0.2 mm 10 mps 765 mmHg 84%
    06:00 -5°C° 0.2 mm 10 mps 766 mmHg 84%
    07:00 -7°C° 0.2 mm 10 mps 766 mmHg 83%
    08:00 -6°C° 0.2 mm 9 mps 766 mmHg 83%
    09:00 -5°C° 0.1 mm 9 mps 766 mmHg 82%
    10:00 -5°C° 0.1 mm 9 mps 767 mmHg 81%
    11:00 -5°C° 0.1 mm 9 mps 767 mmHg 79%
    12:00 -4°C° 0.1 mm 9 mps 767 mmHg 79%
    13:00 -4°C° 0.1 mm 9 mps 767 mmHg 78%
    14:00 -4°C° 0.1 mm 9 mps 767 mmHg 78%
    15:00 -4°C° 0.1 mm 9 mps 767 mmHg 79%
    16:00 -5°C° 0.1 mm 9 mps 767 mmHg 80%
    17:00 -5°C° 0.1 mm 9 mps 767 mmHg 81%
    18:00 -5°C° 0 mm 8 mps 767 mmHg 82%
    19:00 -5°C° 0 mm 8 mps 768 mmHg 83%
    20:00 -4°C° 0 mm 7 mps 768 mmHg 83%
    21:00 -4°C° 0 mm 7 mps 768 mmHg 83%
    22:00 -4°C° 0 mm 6 mps 768 mmHg 84%
    23:00 -4°C° 0 mm 6 mps 768 mmHg 84%

    Tomorrow, 20 December, Thursday

    Time Temperature Precipitation Wind Pressure Humidity
    00:00 -5°C° 0 mm 5 mps 768 mmHg 84%
    01:00 -5°C° 0 mm 5 mps 769 mmHg 84%
    02:00 -5°C° 0 mm 5 mps 769 mmHg 84%
    03:00 -4°C° 0 mm 4 mps 769 mmHg 83%
    04:00 -4°C° 0 mm 4 mps 769 mmHg 83%
    05:00 -4°C° 0 mm 3 mps 769 mmHg 82%
    06:00 -4°C° 0 mm 3 mps 769 mmHg 82%
    07:00 -4°C° 0 mm 3 mps 769 mmHg 81%
    08:00 -4°C° 0 mm 3 mps 770 mmHg 80%
    09:00 -1°C° 0 mm 2 mps 770 mmHg 76%
    10:00 +1°C° 0 mm 2 mps 770 mmHg 72%
    11:00 +2°C° 0 mm 2 mps 770 mmHg 68%
    12:00 +4°C° 0 mm 1 mps 770 mmHg 68%
    13:00 +5°C° 0 mm 1 mps 769 mmHg 69%
    14:00 +6°C° 0 mm 1 mps 769 mmHg 69%
    15:00 +5°C° 0 mm 1 mps 769 mmHg 74%
    16:00 +4°C° 0 mm 1 mps 769 mmHg 79%
    17:00 +3°C° 0 mm 1 mps 769 mmHg 84%
    18:00 +2°C° 0 mm 1 mps 769 mmHg 85%
    19:00 +2°C° 0 mm 1 mps 770 mmHg 86%
    20:00 +2°C° 0 mm 1 mps 770 mmHg 88%
    21:00 +2°C° 0 mm 1 mps 770 mmHg 88%
    22:00 +2°C° 0 mm 1 mps 770 mmHg 89%
    23:00 +2°C° 0 mm 1 mps 770 mmHg 90%

    Day after tomorrow, 21 December, Friday

    Time Temperature Precipitation Wind Pressure Humidity
    00:00 +2°C° 0 mm 1 mps 769 mmHg 90%
    01:00 +2°C° 0 mm 1 mps 769 mmHg 90%
    02:00 +2°C° 0 mm 1 mps 769 mmHg 90%
    03:00 +2°C° 0 mm 1 mps 769 mmHg 89%
    04:00 +2°C° 0 mm 1 mps 769 mmHg 89%
    05:00 +2°C° 0 mm 1 mps 769 mmHg 89%
    06:00 +2°C° 0 mm 1 mps 769 mmHg 89%
    07:00 +2°C° 0 mm 1 mps 769 mmHg 89%
    08:00 +2°C° 0 mm 1 mps 769 mmHg 89%
    09:00 +4°C° 0 mm 1 mps 769 mmHg 86%
    10:00 +4°C° 0 mm 2 mps 769 mmHg 83%
    11:00 +5°C° 0 mm 2 mps 769 mmHg 80%
    12:00 +5°C° 0 mm 2 mps 769 mmHg 80%
    13:00 +6°C° 0 mm 2 mps 768 mmHg 80%
    14:00 +6°C° 0 mm 2 mps 768 mmHg 80%
    15:00 +5°C° 0 mm 2 mps 768 mmHg 83%
    16:00 +4°C° 0 mm 2 mps 768 mmHg 86%
    17:00 +3°C° 0 mm 2 mps 768 mmHg 88%
    18:00 +3°C° 0 mm 2 mps 768 mmHg 88%
    19:00 +2°C° 0 mm 2 mps 768 mmHg 87%
    20:00 +2°C° 0 mm 2 mps 768 mmHg 86%
    21:00 +2°C° 0 mm 2 mps 768 mmHg 85%
    22:00 +2°C° 0 mm 2 mps 767 mmHg 84%
    23:00 +1°C° 0 mm 3 mps 767 mmHg 83%

    22 December, Saturday

    Time Temperature Precipitation Wind Pressure Humidity
    00:00 +1°C° 0 mm 3 mps 767 mmHg 83%
    01:00 +1°C° 0 mm 3 mps 767 mmHg 83%
    02:00 +1°C° 0 mm 3 mps 766 mmHg 83%
    03:00 +1°C° 0 mm 3 mps 766 mmHg 84%
    04:00 +1°C° 0 mm 3 mps 766 mmHg 85%
    05:00 +1°C° 0 mm 3 mps 765 mmHg 86%
    06:00 +1°C° 0 mm 3 mps 765 mmHg 87%
    07:00 +1°C° 0 mm 3 mps 765 mmHg 88%
    08:00 +1°C° 0 mm 3 mps 765 mmHg 88%
    09:00 +3°C° 0 mm 4 mps 765 mmHg 86%
    10:00 +4°C° 0 mm 4 mps 765 mmHg 83%
    11:00 +6°C° 0 mm 4 mps 765 mmHg 81%
    12:00 +6°C° 0 mm 4 mps 765 mmHg 81%
    13:00 +7°C° 0 mm 4 mps 764 mmHg 81%
    14:00 +7°C° 0 mm 4 mps 763 mmHg 80%
    15:00 +6°C° 0 mm 4 mps 763 mmHg 83%
    16:00 +6°C° 0 mm 4 mps 763 mmHg 85%
    17:00 +5°C° 0 mm 4 mps 763 mmHg 87%
    18:00 +5°C° 0 mm 4 mps 763 mmHg 87%
    19:00 +5°C° 0 mm 4 mps 763 mmHg 87%
    20:00 +5°C° 0 mm 3 mps 763 mmHg 86%
    21:00 +5°C° 0 mm 4 mps 763 mmHg 86%
    22:00 +5°C° 0 mm 4 mps 763 mmHg 86%
    23:00 +5°C° 0 mm 4 mps 763 mmHg 86%

    23 December, Sunday

    Time Temperature Precipitation Wind Pressure Humidity
    00:00 +5°C° 0 mm 4 mps 763 mmHg 85%
    01:00 +4°C° 0 mm 4 mps 763 mmHg 84%
    02:00 +4°C° 0 mm 4 mps 763 mmHg 84%
    03:00 +4°C° 0 mm 4 mps 763 mmHg 83%
    04:00 +4°C° 0 mm 4 mps 763 mmHg 82%
    05:00 +4°C° 0 mm 4 mps 762 mmHg 82%
    06:00 +4°C° 0 mm 4 mps 763 mmHg 82%
    07:00 +4°C° 0 mm 4 mps 763 mmHg 82%
    08:00 +5°C° 0 mm 4 mps 763 mmHg 82%
    09:00 +6°C° 0 mm 4 mps 763 mmHg 78%
    10:00 +8°C° 0 mm 4 mps 763 mmHg 74%
    11:00 +10°C° 0 mm 4 mps 764 mmHg 70%
    12:00 +11°C° 0 mm 4 mps 763 mmHg 69%
    13:00 +12°C° 0 mm 4 mps 763 mmHg 68%
    14:00 +12°C° 0 mm 4 mps 762 mmHg 66%
    15:00 +11°C° 0 mm 4 mps 763 mmHg 71%
    16:00 +10°C° 0 mm 3 mps 763 mmHg 77%
    17:00 +9°C° 0 mm 3 mps 763 mmHg 82%
    18:00 +8°C° 0 mm 3 mps 763 mmHg 83%
    19:00 +8°C° 0 mm 3 mps 763 mmHg 85%
    20:00 +8°C° 0 mm 3 mps 763 mmHg 87%
    21:00 +8°C° 0 mm 3 mps 763 mmHg 87%
    22:00 +8°C° 0 mm 3 mps 763 mmHg 87%
    23:00 +7°C° 0 mm 3 mps 763 mmHg 87%

    24 December, Monday

    Time Temperature Precipitation Wind Pressure Humidity
    00:00 +7°C° 0 mm 3 mps 763 mmHg 86%
    01:00 +7°C° 0 mm 3 mps 763 mmHg 85%
    02:00 +7°C° 0 mm 3 mps 763 mmHg 84%
    03:00 +7°C° 0 mm 3 mps 763 mmHg 84%
    04:00 +7°C° 0 mm 3 mps 763 mmHg 84%
    05:00 +7°C° 0 mm 2 mps 763 mmHg 84%
    06:00 +7°C° 0 mm 2 mps 763 mmHg 84%
    07:00 +6°C° 0 mm 2 mps 763 mmHg 84%
    08:00 +6°C° 0 mm 2 mps 763 mmHg 84%
    09:00 +7°C° 0 mm 2 mps 763 mmHg 81%
    10:00 +8°C° 0 mm 2 mps 763 mmHg 78%
    11:00 +9°C° 0 mm 3 mps 763 mmHg 74%
    12:00 +9°C° 0.1 mm 3 mps 763 mmHg 75%
    13:00 +9°C° 0.1 mm 2 mps 763 mmHg 75%
    14:00 +9°C° 0.1 mm 2 mps 762 mmHg 75%
    15:00 +9°C° 0.3 mm 2 mps 762 mmHg 78%
    16:00 +8°C° 0.3 mm 3 mps 762 mmHg 82%
    17:00 +7°C° 0.3 mm 3 mps 763 mmHg 85%
    18:00 +7°C° 0.2 mm 3 mps 763 mmHg 84%
    19:00 +6°C° 0.2 mm 4 mps 763 mmHg 84%
    20:00 +5°C° 0.2 mm 5 mps 763 mmHg 83%
    21:00 +5°C° 0 mm 5 mps 763 mmHg 81%
    22:00 +5°C° 0 mm 5 mps 763 mmHg 80%
    23:00 +3°C° 0 mm 6 mps 763 mmHg 78%
    Show more